Location: Festilli
(46.4000°N, 11.6667°E)
Time: 07:10:31
(UTC+00:00)

Ariane Rocket - Pass Details

Date: 03 March 2021
Orbit: 759 x 771 km, 98.7° (Epoch: 18 April)

Event Time Altitude Azimuth Distance (km) Brightness Sun altitude
Exits shadow 18:42:04 28° 128° (SE) 1,427 3.9 -17.9°
Maximum altitude 18:44:28 49° 69° (ENE) 990 3.2 -18.3°
Drops below altitude 10° 18:49:23 10° 356° (N) 2,323 5.7 -19.2°
Sets 18:51:45 0° 351° (N) 3,253 6.5 -19.6°
